Weather Service Report


388 
ASUS43 KMKX 170021
RWRWI 

WISCONSIN REGIONAL WEATHER ROUNDUP
NATIONAL WEATHER SERVICE MILWAUKEE/SULLIVAN WI
700 PM CDT MON OCT 16 2017

NOTE: "FAIR" INDICATES FEW OR NO CLOUDS BELOW 12,000 FEET WITH NO
SIGNIFICANT WEATHER AND/OR OBSTRUCTIONS TO VISIBILITY.

WIZ001-002-006>008-014>016-023>028-170100-
NORTHWEST WISCONSIN
  
CITY           SKY/WX    TMP DP  RH WIND       PRES   REMARKS
SUPERIOR ARPT  CLEAR     55  36  47 SW9       29.93S                  
6HR MIN TEMP:  55; 6HR MAX TEMP:  62;                                

ASHLAND        CLEAR     54  34  46 S9        29.96F                  
6HR MIN TEMP:  54; 6HR MAX TEMP:  60;                                

HAYWARD        CLEAR     50  35  56 S7        29.99F                  
6HR MIN TEMP:  50; 6HR MAX TEMP:  60;                                

SIREN          CLEAR     53  36  52 S5        29.98F                  
6HR MIN TEMP:  53; 6HR MAX TEMP:  62;                                

CUMBERLAND     CLEAR     48  34  57 S6        30.00F                  
RICE LAKE      CLEAR     51  36  56 SE6       30.02F                  
6HR MIN TEMP:  51; 6HR MAX TEMP:  62;                                

CHETEK         CLEAR     52  36  54 SE5       30.02F                  
6HR MIN TEMP:  52; 6HR MAX TEMP:  61;                                

LADYSMITH      CLEAR     52  35  52 S5        30.05F                  
6HR MIN TEMP:  51; 6HR MAX TEMP:  59;                                

EAU CLAIRE     CLEAR     54  36  50 S8        30.04F                  
6HR MIN TEMP:  54; 6HR MAX TEMP:  62;                                

MENOMONIE      CLEAR     53  36  51 SE7       30.03F                  
6HR MIN TEMP:  53; 6HR MAX TEMP:  63;                                

NEW RICHMOND   CLEAR     54  35  49 S6        30.01F                  
6HR MIN TEMP:  54; 6HR MAX TEMP:  62;                                

OSCEOLA        CLEAR     54  37  53 SE6       30.02F                  
6HR MIN TEMP:  54; 6HR MAX TEMP:  63;                                

$$
 
WIZ003>005-009-010-017-018-170100-
NORTH CENTRAL WISCONSIN
  
CITY           SKY/WX    TMP DP  RH WIND       PRES   REMARKS
MANITOWISH WTR CLEAR     47  33  57 S6        30.01F                  
6HR MIN TEMP:  47; 6HR MAX TEMP:  56;                                

ARBOR VITAE    CLEAR     47  35  64 S6        30.03S                  
6HR MIN TEMP:  47; 6HR MAX TEMP:  57;                                

WOODRUFF       CLEAR     47  35  64 S6        30.03S                  
6HR MIN TEMP:  47; 6HR MAX TEMP:  57;                                

RHINELANDER    CLEAR     48  34  58 SW7       30.05F                  
6HR MIN TEMP:  48; 6HR MAX TEMP:  57;                                

EAGLE RIVER    CLEAR     48  32  53 S3        30.03F                  
6HR MIN TEMP:  48; 6HR MAX TEMP:  56;                                

LAND O LAKES   CLEAR     48  34  59 S3        30.03F                  
6HR MIN TEMP:  48; 6HR MAX TEMP:  57;                                

PHILLIPS       CLEAR     49  34  57 S6        30.03F                  
6HR MIN TEMP:  49; 6HR MAX TEMP:  56;                                

TOMAHAWK       CLEAR     44  34  69 CALM      30.06S                  
6HR MIN TEMP:  44; 6HR MAX TEMP:  56;                                

MEDFORD        CLEAR     46  35  64 S6        30.06F                  
6HR MIN TEMP:  46; 6HR MAX TEMP:  56;                                

MERRILL        CLEAR     50  35  56 S3        30.07F                  
$$
 
WIZ029-030-035-036-043>047-170100-
CENTRAL WISCONSIN
  
CITY           SKY/WX    TMP DP  RH WIND       PRES   REMARKS
WAUSAU         CLEAR     51  36  56 SW5       30.07F                  
6HR MIN TEMP:  51; 6HR MAX TEMP:  58;                                

MOSINEE        PTCLDY    46  37  71 S7        30.10F                  
MARSHFIELD     CLEAR     50  34  54 S6        30.08F                  
6HR MIN TEMP:  50; 6HR MAX TEMP:  58;                                

STEVENS POINT  CLEAR     47  36  66 S5        30.10F                  
6HR MIN TEMP:  47; 6HR MAX TEMP:  57;                                

WAUPACA        CLEAR     51  38  61 S3        30.12F                  
6HR MIN TEMP:  50; 6HR MAX TEMP:  62;                                

WAUTOMA        CLEAR     49  40  71 S5        30.13F                  
6HR MIN TEMP:  49; 6HR MAX TEMP:  61;                                

WISC RAPIDS    CLEAR     48  40  73 S5        30.11F                  
6HR MIN TEMP:  47; 6HR MAX TEMP:  61;                                

CAMP DOUGLAS   PTCLDY    50  37  62 S5        30.11F                  
$$
 
WIZ011>013-019>022-031-037>040-048>050-170100-
NORTHEAST WISCONSIN
  
CITY           SKY/WX    TMP DP  RH WIND       PRES   REMARKS
ANTIGO         CLEAR     46  36  68 S7        30.08F                  
6HR MIN TEMP:  45; 6HR MAX TEMP:  55;                                

SHAWANO        CLEAR     54  38  55 CALM      30.09F                  
6HR MIN TEMP:  54; 6HR MAX TEMP:  61;                                

OCONTO         CLEAR     50  37  61 CALM      30.10S                  
6HR MIN TEMP:  50; 6HR MAX TEMP:  58;                                

STURGEON BAY   CLEAR     51  38  60 S6        30.12F                  
6HR MIN TEMP:  51; 6HR MAX TEMP:  57;                                

GREEN BAY      CLEAR     52  41  66 S7        30.11F                  
6HR MIN TEMP:  52; 6HR MAX TEMP:  59;                                

MANITOWOC      NOT AVBL                                               
APPLETON       PTCLDY    48  36  61 SW7       30.11F                  
CLINTONVILLE   CLEAR     48  37  66 S6        30.10F                  
OSHKOSH        CLEAR     47  39  74 S7        30.13F                  
6HR MIN TEMP:  46; 6HR MAX TEMP:  59;                                

$$
 
WIZ032>034-041-042-053>061-170100-
SOUTHWEST WISCONSIN
  
CITY           SKY/WX    TMP DP  RH WIND       PRES   REMARKS
LA CROSSE      CLEAR     56  39  53 S8        30.09F                  
6HR MIN TEMP:  55; 6HR MAX TEMP:  66;                                

SPARTA         CLEAR     47  39  75 CALM      30.11F                  
6HR MIN TEMP:  47; 6HR MAX TEMP:  62;                                

VIROQUA        CLEAR     53  37  54 CALM      30.12F                  
6HR MIN TEMP:  53; 6HR MAX TEMP:  62;                                

BOSCOBEL       CLEAR     51  39  63 CALM      30.15S                  
6HR MIN TEMP:  51; 6HR MAX TEMP:  66;                                

PRAIRIE DU CHI CLEAR     56  36  48 CALM      30.14S                  
6HR MIN TEMP:  56; 6HR MAX TEMP:  65;                                

PLATTEVILLE    CLEAR     54  37  51 S9        30.17F                  
6HR MIN TEMP:  54; 6HR MAX TEMP:  63;                                

$$

WIZ056-057-062-063-064-067-068-170100-
SOUTH CENTRAL WISCONSIN
  
CITY           SKY/WX    TMP DP  RH WIND       PRES   REMARKS
REEDSBURG      CLEAR     52  37  56 S3        30.13F                  
6HR MIN TEMP:  52; 6HR MAX TEMP:  60;                                

BARABOO/DELLS  CLEAR     47  37  68 S5        30.14F                  
6HR MIN TEMP:  47; 6HR MAX TEMP:  60;                                

LONE ROCK      CLEAR     48  42  80 NE3       30.15F                  
6HR MIN TEMP:  48; 6HR MAX TEMP:  63;                                

MINERAL POINT  CLEAR     54  34  47 S6        30.16F                  
MADISON        PTCLDY    55  38  52 CALM      30.16F                  
6HR MIN TEMP:  55; 6HR MAX TEMP:  60;                                

MIDDLETON      CLEAR     55  36  48 SW5       30.17S                  
6HR MIN TEMP:  55; 6HR MAX TEMP:  62;                                

WATERTOWN      CLEAR     51  37  58 S3        30.16F                  
6HR MIN TEMP:  50; 6HR MAX TEMP:  60;                                

MONROE         CLEAR     52  36  54 S8        30.17F                  
JANESVILLE     CLEAR     55  36  47 MISG      30.18F                  
$$
 
WIZ051-052-058>065-066-070>072-170100-
SOUTHEAST WISCONSIN
  
CITY           SKY/WX    TMP DP  RH WIND       PRES   REMARKS
MILWAUKEE      PTCLDY    56  37  49 S5        30.19S                  
6HR MIN TEMP:  56; 6HR MAX TEMP:  62;                                

WAUKESHA       CLEAR     50  36  57 CALM      30.19F                  
MILWAUKEE/TIMM CLEAR     54  32  43 SW3       30.19S                  
RACINE         CLEAR     52  38  58 S3        30.21S                  
6HR MIN TEMP:  52; 6HR MAX TEMP:  62;                                

BURLINGTON     CLEAR     48  40  72 CALM      30.19S                  
6HR MIN TEMP:  47; 6HR MAX TEMP:  62;                                

KENOSHA        CLEAR     56  36  47 SW5       30.20S                  
6HR MIN TEMP:  51; 6HR MAX TEMP:  62;                                

FOND DU LAC    CLEAR     51  36  56 S5        30.15F                  
6HR MIN TEMP:  51; 6HR MAX TEMP:  60;                                

SHEBOYGAN      CLEAR     48  39  71 S5        30.15F                  
6HR MIN TEMP:  48; 6HR MAX TEMP:  60;                                

WEST BEND      CLEAR     46  39  76 S3        30.17S                  
JUNEAU         CLEAR     51  37  57 S5        30.17F                  
6HR MIN TEMP:  51; 6HR MAX TEMP:  58;                                

$$

LSZ147-162-170100-
LAKE SUPERIOR
  
STATION/POSITION TIME  TEMP    WIND        PRES    WAVE
                       AIR SEA DIR/SP/G            HT/PER
                 (UTC) (F)     (DEG/KT/KT) (MB)    (FT/S)
W MID LAKE BUOY  2350   54 53              1013.4F   3/ 5
DEVILS ISLAND    0000   56     190/ 10/ 13 1013.0F
SAXON HARBOR     2340   52     210/  2/  5 1014.2F
$$
 
LMZ867-665-643>646-170100-
LAKE MICHIGAN
  
STATION/POSITION TIME  TEMP    WIND        PRES    WAVE
                       AIR SEA DIR/SP/G            HT/PER
                 (UTC) (F)     (DEG/KT/KT) (MB)    (FT/S)
S GREEN BAY BUOY 0000   58 58  210/ 14/ 16 1019.0
N MID LAKE BUOY  2350   56 60  210/ 19/ 21 1019.8F   3/ 

Return to Home page


Western Regional Climate Center, wrcc@dri.edu